DAL477 KLAX-KFLL

Flight info

Callsign DAL477
Flight time 5h 3m
Altitude 35000
Route DOTSS2 CNERY BLH J169 TFD J50 ELP J2 FST CRP CATFS/N0444F370 ALGAE MINOW M580 MARCI TEEKY3
Aircraft A21N/M-SDE2E3FGHIRWXY/LB1

Departure

Time 2026-04-22 22:30
Airport Los Angeles International Airport (KLAX)

Arrival

Time 2026-04-23 03:34
Airport Fort Lauderdale Hollywood International Airport (KFLL)
Time Latitude Longitude Altitude Speed Heading
2026-04-22 22:00 33.94564 -118.40636 98 ft 0 kts 262°
2026-04-22 22:16 33.94564 -118.40634 98 ft 2 kts 262°
2026-04-22 22:17 33.94568 -118.40604 98 ft 4 kts 262°
2026-04-22 22:17 33.94571 -118.40572 98 ft 4 kts 262°
2026-04-22 22:17 33.94575 -118.40540 100 ft 4 kts 262°
2026-04-22 22:17 33.94577 -118.40529 98 ft 1 kts 262°
2026-04-22 22:21 33.94576 -118.40529 98 ft 0 kts 261°
2026-04-22 22:23 33.94589 -118.40557 98 ft 7 kts 320°
2026-04-22 22:23 33.94659 -118.40566 100 ft 5 kts 355°
2026-04-22 22:23 33.94660 -118.40566 98 ft 0 kts 354°
2026-04-22 22:26 33.94663 -118.40566 98 ft 2 kts 354°
2026-04-22 22:26 33.94705 -118.40573 99 ft 9 kts 350°
2026-04-22 22:27 33.94773 -118.40588 100 ft 11 kts 348°
2026-04-22 22:27 33.94852 -118.40587 99 ft 13 kts 43°
2026-04-22 22:27 33.94877 -118.40478 101 ft 14 kts 82°
2026-04-22 22:27 33.94894 -118.40352 100 ft 16 kts 77°
2026-04-22 22:28 33.94907 -118.40213 99 ft 17 kts 85°
2026-04-22 22:28 33.94917 -118.40105 99 ft 9 kts 80°
2026-04-22 22:28 33.94942 -118.40060 100 ft 1 kts
2026-04-22 22:28 33.94947 -118.40060 100 ft 2 kts
2026-04-22 22:29 33.94968 -118.40063 100 ft 4 kts 352°
2026-04-22 22:29 33.95002 -118.40075 101 ft 6 kts 328°
2026-04-22 22:29 33.95024 -118.40127 102 ft 6 kts 266°
2026-04-22 22:29 33.95023 -118.40134 104 ft 1 kts 263°
2026-04-22 22:30 33.95001 -118.40337 103 ft 61 kts 263°
2026-04-22 22:30 33.94914 -118.41152 103 ft 131 kts 264°
2026-04-22 22:30 33.94781 -118.42362 424 ft 150 kts 257°
2026-04-22 22:30 33.94553 -118.43618 992 ft 157 kts 252°
2026-04-22 22:31 33.94355 -118.44499 1506 ft 159 kts 255°
2026-04-22 22:31 33.94172 -118.45787 2196 ft 156 kts 274°
2026-04-22 22:31 33.94315 -118.47092 2803 ft 161 kts 273°
2026-04-22 22:31 33.94308 -118.48466 3455 ft 166 kts 270°
2026-04-22 22:32 33.94267 -118.49885 4016 ft 176 kts 270°
2026-04-22 22:32 33.94199 -118.51441 4438 ft 195 kts 266°
2026-04-22 22:32 33.94058 -118.53129 4960 ft 209 kts 266°
2026-04-22 22:32 33.93913 -118.54948 5381 ft 230 kts 266°
2026-04-22 22:33 33.93755 -118.56957 5772 ft 252 kts 266°
2026-04-22 22:33 33.93585 -118.59108 6432 ft 261 kts 266°
2026-04-22 22:33 33.93412 -118.61296 7226 ft 264 kts 267°
2026-04-22 22:33 33.93237 -118.63512 8045 ft 266 kts 266°
2026-04-22 22:34 33.93063 -118.65734 8874 ft 268 kts 266°
2026-04-22 22:34 33.92896 -118.67976 9697 ft 270 kts 266°
2026-04-22 22:34 33.92732 -118.70232 10475 ft 271 kts 266°
2026-04-22 22:34 33.92571 -118.72499 11229 ft 272 kts 266°
2026-04-22 22:35 33.92412 -118.74767 11993 ft 272 kts 266°
2026-04-22 22:35 33.92253 -118.77043 12758 ft 273 kts 266°
2026-04-22 22:35 33.92094 -118.79333 13528 ft 274 kts 266°
2026-04-22 22:35 33.91934 -118.81630 14254 ft 275 kts 266°
2026-04-22 22:36 33.91773 -118.83930 14920 ft 276 kts 266°
2026-04-22 22:36 33.91616 -118.86209 15605 ft 277 kts 266°
2026-04-22 22:36 33.91453 -118.88547 16305 ft 277 kts 266°
2026-04-22 22:36 33.91290 -118.90869 16983 ft 278 kts 266°
2026-04-22 22:37 33.91128 -118.93164 17653 ft 279 kts 266°
2026-04-22 22:37 33.90962 -118.95496 18324 ft 280 kts 266°
2026-04-22 22:37 33.90795 -118.97832 18914 ft 281 kts 266°
2026-04-22 22:37 33.90630 -119.00188 19465 ft 283 kts 266°
2026-04-22 22:38 33.90471 -119.02553 20006 ft 285 kts 266°
2026-04-22 22:38 33.90315 -119.04946 20538 ft 287 kts 266°
2026-04-22 22:38 33.90165 -119.07352 21079 ft 290 kts 266°
2026-04-22 22:38 33.90020 -119.09786 21597 ft 292 kts 266°
2026-04-22 22:39 33.89880 -119.12234 22114 ft 295 kts 266°
2026-04-22 22:39 33.89745 -119.14706 22626 ft 297 kts 266°
2026-04-22 22:39 33.89614 -119.17199 23125 ft 300 kts 266°
2026-04-22 22:39 33.89487 -119.19710 23623 ft 302 kts 266°
2026-04-22 22:40 33.89364 -119.22245 24043 ft 304 kts 266°
2026-04-22 22:40 33.89240 -119.24796 24453 ft 306 kts 266°
2026-04-22 22:40 33.89117 -119.27356 24848 ft 308 kts 266°
2026-04-22 22:40 33.88991 -119.29940 25245 ft 310 kts 266°
2026-04-22 22:41 33.88865 -119.32530 25637 ft 312 kts 266°
2026-04-22 22:41 33.88735 -119.35139 26030 ft 313 kts 266°
2026-04-22 22:41 33.88604 -119.37762 26412 ft 315 kts 266°
2026-04-22 22:41 33.88470 -119.40398 26788 ft 316 kts 266°
2026-04-22 22:42 33.88334 -119.43043 27158 ft 318 kts 266°
2026-04-22 22:42 33.88197 -119.45700 27524 ft 319 kts 266°
2026-04-22 22:42 33.88057 -119.48382 27879 ft 321 kts 266°
2026-04-22 22:42 33.87916 -119.51067 28228 ft 323 kts 266°
2026-04-22 22:43 33.87774 -119.53766 28563 ft 324 kts 266°
2026-04-22 22:43 33.87632 -119.56451 28887 ft 326 kts 266°
2026-04-22 22:43 33.87487 -119.59171 29211 ft 327 kts 266°
2026-04-22 22:43 33.87341 -119.61909 29528 ft 328 kts 266°
2026-04-22 22:44 33.87193 -119.64659 29825 ft 330 kts 266°
2026-04-22 22:44 33.87043 -119.67422 30113 ft 331 kts 266°
2026-04-22 22:44 33.86892 -119.70186 30371 ft 333 kts 266°
2026-04-22 22:44 33.86740 -119.72978 30635 ft 333 kts 266°
2026-04-22 22:45 33.86591 -119.75762 30884 ft 334 kts 266°
2026-04-22 22:45 33.86442 -119.78554 31138 ft 334 kts 266°
2026-04-22 22:45 33.86295 -119.81352 31393 ft 335 kts 266°
2026-04-22 22:45 33.86148 -119.84142 31631 ft 335 kts 266°
2026-04-22 22:46 33.86000 -119.86948 31847 ft 336 kts 266°
2026-04-22 22:46 33.85852 -119.89761 32058 ft 337 kts 266°
2026-04-22 22:46 33.85705 -119.92577 32263 ft 337 kts 266°
2026-04-22 22:46 33.85561 -119.95388 32465 ft 338 kts 266°
2026-04-22 22:47 33.85417 -119.98221 32664 ft 339 kts 266°
2026-04-22 22:47 33.85275 -120.01048 32858 ft 339 kts 266°
2026-04-22 22:47 33.85182 -120.02930 32983 ft 340 kts 266°
2026-04-22 22:47 33.85043 -120.05763 33173 ft 340 kts 266°
2026-04-22 22:48 33.84860 -120.09539 33407 ft 341 kts 266°
2026-04-22 22:48 33.84723 -120.12397 33569 ft 342 kts 266°
2026-04-22 22:48 33.84588 -120.15254 33768 ft 342 kts 266°
2026-04-22 22:48 33.84454 -120.18105 33961 ft 342 kts 266°
2026-04-22 22:49 33.84364 -120.20036 34076 ft 342 kts 266°
2026-04-22 22:49 33.84234 -120.22858 34223 ft 343 kts 266°
2026-04-22 22:49 33.84104 -120.25718 34362 ft 343 kts 266°
2026-04-22 22:49 33.83974 -120.28587 34509 ft 343 kts 266°
2026-04-22 22:50 33.83845 -120.31453 34646 ft 344 kts 266°
2026-04-22 22:50 33.83717 -120.34322 34777 ft 344 kts 266°
2026-04-22 22:50 33.83590 -120.37182 34922 ft 344 kts 266°
2026-04-22 22:50 33.83463 -120.40074 35033 ft 344 kts 266°
2026-04-22 22:51 33.83338 -120.42943 35036 ft 342 kts 266°
2026-04-22 22:51 33.83086 -120.48710 35026 ft 350 kts 266°
2026-04-22 22:52 33.82797 -120.54642 35033 ft 360 kts 265°
2026-04-22 22:52 33.82330 -120.60720 35033 ft 369 kts 264°
2026-04-22 22:53 33.81692 -120.66890 35028 ft 373 kts 262°
2026-04-22 22:53 33.80902 -120.73031 35023 ft 371 kts 261°
2026-04-22 22:54 33.80560 -120.79209 35030 ft 371 kts 270°
2026-04-22 22:54 33.80808 -120.85371 35058 ft 372 kts 272°
2026-04-22 22:55 33.81103 -120.91675 35032 ft 376 kts 272°
2026-04-22 22:55 33.81534 -121.01052 35037 ft 377 kts 272°
2026-04-22 22:56 33.82595 -121.07218 35015 ft 385 kts 291°
2026-04-22 22:56 33.84045 -121.09963 35037 ft 395 kts 303°
2026-04-22 22:56 33.86055 -121.12276 35027 ft 408 kts 315°
2026-04-22 22:57 33.88551 -121.14033 35033 ft 423 kts 327°
2026-04-22 22:57 33.91402 -121.15115 35030 ft 440 kts 339°
2026-04-22 22:57 33.94505 -121.15451 35032 ft 457 kts 351°
2026-04-22 22:57 33.97711 -121.14995 35045 ft 472 kts
2026-04-22 22:58 34.00882 -121.13735 35035 ft 488 kts 15°
2026-04-22 22:58 34.03876 -121.11696 35034 ft 502 kts 27°
2026-04-22 22:58 34.06562 -121.08945 35035 ft 514 kts 39°
2026-04-22 22:58 34.08820 -121.05584 35030 ft 518 kts 51°
2026-04-22 22:59 34.10490 -121.01704 35027 ft 524 kts 65°
2026-04-22 22:59 34.11538 -120.97487 35026 ft 528 kts 78°
2026-04-22 22:59 34.11779 -120.93063 35034 ft 530 kts 95°
2026-04-22 22:59 34.11288 -120.88682 35042 ft 528 kts 102°
2026-04-22 23:00 34.09985 -120.79965 35038 ft 528 kts 102°
2026-04-22 23:00 34.08747 -120.71238 35028 ft 528 kts 102°
2026-04-22 23:01 34.07527 -120.62493 35013 ft 530 kts 102°
2026-04-22 23:01 34.06296 -120.53727 35023 ft 530 kts 102°
2026-04-22 23:02 34.05055 -120.44970 35013 ft 530 kts 102°
2026-04-22 23:02 34.03813 -120.36223 35004 ft 529 kts 102°
2026-04-22 23:03 34.02567 -120.27490 34993 ft 529 kts 102°
2026-04-22 23:03 34.01314 -120.18745 34990 ft 529 kts 102°
2026-04-22 23:04 34.00047 -120.10008 34988 ft 530 kts 103°
2026-04-22 23:04 33.98777 -120.01268 34985 ft 529 kts 102°
2026-04-22 23:05 33.97509 -119.92526 34973 ft 530 kts 103°
2026-04-22 23:05 33.96225 -119.83789 34969 ft 530 kts 103°
2026-04-22 23:06 33.94940 -119.75053 34964 ft 529 kts 103°
2026-04-22 23:06 33.93635 -119.66323 34962 ft 529 kts 103°
2026-04-22 23:07 33.92347 -119.57602 34949 ft 529 kts 103°
2026-04-22 23:07 33.91041 -119.48892 34956 ft 533 kts 103°
2026-04-22 23:08 33.89719 -119.40123 34959 ft 532 kts 103°
2026-04-22 23:08 33.88387 -119.31302 34968 ft 532 kts 103°
2026-04-22 23:09 33.87061 -119.22546 34975 ft 531 kts 103°
2026-04-22 23:09 33.85738 -119.13858 34968 ft 530 kts 103°
2026-04-22 23:10 33.84389 -119.05146 34962 ft 530 kts 103°
2026-04-22 23:10 33.83041 -118.96397 34967 ft 535 kts 103°
2026-04-22 23:11 33.81675 -118.87589 34977 ft 534 kts 103°
2026-04-22 23:11 33.80312 -118.78814 34974 ft 534 kts 103°
2026-04-22 23:12 33.78939 -118.70034 34986 ft 534 kts 103°
2026-04-22 23:12 33.77561 -118.61265 34993 ft 533 kts 103°
2026-04-22 23:13 33.76196 -118.52576 34973 ft 533 kts 103°
2026-04-22 23:13 33.74795 -118.43773 34960 ft 534 kts 104°
2026-04-22 23:14 33.73390 -118.34974 34986 ft 538 kts 104°
2026-04-22 23:14 33.71978 -118.26192 34964 ft 539 kts 104°
2026-04-22 23:15 33.70556 -118.17366 34959 ft 538 kts 104°
2026-04-22 23:15 33.69129 -118.08530 34968 ft 538 kts 104°
2026-04-22 23:16 33.67708 -117.99733 34974 ft 538 kts 104°
2026-04-22 23:16 33.66267 -117.90917 34972 ft 537 kts 104°
2026-04-22 23:17 33.64797 -117.81956 34963 ft 543 kts 104°
2026-04-22 23:17 33.62868 -117.73242 34969 ft 540 kts 110°
2026-04-22 23:18 33.60726 -117.64599 34972 ft 540 kts 110°
2026-04-22 23:18 33.58596 -117.56020 34962 ft 540 kts 110°
2026-04-22 23:19 33.56450 -117.47329 34954 ft 540 kts 110°
2026-04-22 23:19 33.54310 -117.38703 34914 ft 539 kts 111°
2026-04-22 23:20 33.52157 -117.30101 34965 ft 545 kts 111°
2026-04-22 23:20 33.50436 -117.21185 34946 ft 550 kts 96°
2026-04-22 23:21 33.50258 -117.12065 34943 ft 550 kts 91°
2026-04-22 23:21 33.50192 -117.03137 34932 ft 549 kts 91°
2026-04-22 23:22 33.50053 -116.93981 34926 ft 549 kts 92°
2026-04-22 23:22 33.49902 -116.84839 34911 ft 549 kts 92°
2026-04-22 23:23 33.49749 -116.75709 34915 ft 549 kts 92°
2026-04-22 23:23 33.49596 -116.66554 34897 ft 549 kts 92°
2026-04-22 23:24 33.49452 -116.57422 34852 ft 549 kts 92°
2026-04-22 23:24 33.49292 -116.48263 34872 ft 550 kts 92°
2026-04-22 23:25 33.49125 -116.39093 34865 ft 551 kts 92°
2026-04-22 23:25 33.48992 -116.29903 34840 ft 551 kts 92°
2026-04-22 23:26 33.48861 -116.20733 34829 ft 549 kts 91°
2026-04-22 23:26 33.48729 -116.11587 34840 ft 550 kts 92°
2026-04-22 23:27 33.49054 -116.02451 34829 ft 549 kts 77°
2026-04-22 23:27 33.51312 -115.93779 34854 ft 544 kts 66°
2026-04-22 23:28 33.53894 -115.85267 34838 ft 543 kts 67°
2026-04-22 23:28 33.56401 -115.76720 34841 ft 543 kts 67°
2026-04-22 23:29 33.58895 -115.68176 34820 ft 543 kts 67°
2026-04-22 23:29 33.61373 -115.59608 34817 ft 543 kts 67°
2026-04-22 23:30 33.63103 -115.52378 34811 ft 547 kts 81°
2026-04-22 23:30 33.63270 -115.47820 34814 ft 547 kts 95°
2026-04-22 23:30 33.62419 -115.41902 34822 ft 542 kts 108°
2026-04-22 23:31 33.61262 -115.34431 34811 ft 545 kts 98°
2026-04-22 23:31 33.60904 -115.25357 34804 ft 545 kts 92°
2026-04-22 23:32 33.60711 -115.16266 34803 ft 545 kts 92°
2026-04-22 23:32 33.60454 -115.07164 34796 ft 545 kts 93°
2026-04-22 23:33 33.60197 -114.98081 34768 ft 546 kts 92°
2026-04-22 23:33 33.59947 -114.89032 34796 ft 546 kts 92°
2026-04-22 23:34 33.59689 -114.79936 34790 ft 546 kts 93°
2026-04-22 23:34 33.59113 -114.70866 34790 ft 545 kts 98°
2026-04-22 23:35 33.58299 -114.61834 34792 ft 545 kts 98°
2026-04-22 23:35 33.57475 -114.52797 34789 ft 545 kts 98°
2026-04-22 23:36 33.56657 -114.43761 34786 ft 545 kts 98°
2026-04-22 23:36 33.55842 -114.34734 34782 ft 544 kts 98°
2026-04-22 23:37 33.55027 -114.25701 34780 ft 545 kts 98°
2026-04-22 23:37 33.54213 -114.16676 34787 ft 544 kts 98°
2026-04-22 23:38 33.53379 -114.07666 34780 ft 544 kts 98°
2026-04-22 23:38 33.52532 -113.98721 34793 ft 543 kts 98°
2026-04-22 23:39 33.51690 -113.89718 34826 ft 543 kts 98°
2026-04-22 23:39 33.50824 -113.80727 34858 ft 543 kts 98°
2026-04-22 23:40 33.49959 -113.71736 34889 ft 543 kts 98°
2026-04-22 23:40 33.49096 -113.62753 34906 ft 542 kts 98°
2026-04-22 23:41 33.48214 -113.53774 34905 ft 542 kts 98°
2026-04-22 23:41 33.47323 -113.44799 34867 ft 542 kts 98°
2026-04-22 23:42 33.46278 -113.35930 34735 ft 540 kts 107°
2026-04-22 23:42 33.45117 -113.31684 34738 ft 536 kts 118°
2026-04-22 23:42 33.43578 -113.27641 34756 ft 534 kts 121°
2026-04-22 23:43 33.40354 -113.19633 34753 ft 533 kts 121°
2026-04-22 23:43 33.37164 -113.11619 34745 ft 534 kts 121°
2026-04-22 23:44 33.33988 -113.03593 34747 ft 534 kts 120°
2026-04-22 23:44 33.30808 -112.95579 34750 ft 533 kts 121°
2026-04-22 23:45 33.27624 -112.87576 34757 ft 533 kts 121°
2026-04-22 23:45 33.24435 -112.79575 34760 ft 533 kts 121°
2026-04-22 23:46 33.21245 -112.71590 34750 ft 533 kts 121°
2026-04-22 23:46 33.18045 -112.63614 34749 ft 532 kts 121°
2026-04-22 23:47 33.14844 -112.55651 34741 ft 532 kts 121°
2026-04-22 23:47 33.11644 -112.47684 34735 ft 531 kts 120°
2026-04-22 23:48 33.08445 -112.39739 34731 ft 532 kts 121°
2026-04-22 23:48 33.05223 -112.31795 34723 ft 532 kts 121°
2026-04-22 23:49 33.02008 -112.23870 34722 ft 532 kts 121°
2026-04-22 23:49 32.98788 -112.15930 34726 ft 532 kts 121°
2026-04-22 23:50 32.95565 -112.08000 34726 ft 531 kts 120°
2026-04-22 23:50 32.92342 -112.00103 34752 ft 529 kts 120°
2026-04-22 23:51 32.89146 -111.92205 34755 ft 531 kts 117°
2026-04-22 23:51 32.86958 -111.83771 34768 ft 536 kts 107°
2026-04-22 23:52 32.85082 -111.75182 34768 ft 537 kts 107°
2026-04-22 23:52 32.83180 -111.66599 34754 ft 537 kts 107°
2026-04-22 23:53 32.81257 -111.58014 34736 ft 537 kts 107°
2026-04-22 23:53 32.79334 -111.49469 34727 ft 534 kts 107°
2026-04-22 23:54 32.77419 -111.40943 34727 ft 533 kts 107°
2026-04-22 23:54 32.75519 -111.32499 34740 ft 533 kts 107°
2026-04-22 23:55 32.73580 -111.23997 34738 ft 533 kts 107°
2026-04-22 23:55 32.71646 -111.15492 34734 ft 533 kts 107°
2026-04-22 23:56 32.69699 -111.06991 34719 ft 534 kts 107°
2026-04-22 23:56 32.67758 -110.98484 34706 ft 534 kts 107°
2026-04-22 23:57 32.65812 -110.89995 34700 ft 531 kts 107°
2026-04-22 23:57 32.63865 -110.81550 34702 ft 530 kts 108°
2026-04-22 23:58 32.61908 -110.73108 34696 ft 532 kts 107°
2026-04-22 23:58 32.59952 -110.64640 34692 ft 532 kts 107°
2026-04-22 23:59 32.57978 -110.56175 34697 ft 533 kts 108°
2026-04-22 23:59 32.55995 -110.47719 34698 ft 532 kts 108°
2026-04-23 00:00 32.53016 -110.35021 34706 ft 533 kts 107°
2026-04-23 00:01 32.51031 -110.26561 34700 ft 531 kts 107°
2026-04-23 00:01 32.49030 -110.18142 34694 ft 530 kts 107°
2026-04-23 00:02 32.47037 -110.09740 34694 ft 530 kts 107°
2026-04-23 00:02 32.45045 -110.01341 34698 ft 530 kts 107°
2026-04-23 00:03 32.43044 -109.92934 34692 ft 530 kts 107°
2026-04-23 00:03 32.41026 -109.84555 34694 ft 530 kts 107°
2026-04-23 00:04 32.39017 -109.76160 34686 ft 531 kts 107°
2026-04-23 00:04 32.36988 -109.67731 34654 ft 532 kts 107°
2026-04-23 00:05 32.34952 -109.59364 34668 ft 529 kts 107°
2026-04-23 00:05 32.32935 -109.50998 34666 ft 528 kts 107°
2026-04-23 00:06 32.30904 -109.42642 34667 ft 529 kts 107°
2026-04-23 00:06 32.28853 -109.34278 34654 ft 530 kts 107°
2026-04-23 00:07 32.26803 -109.25906 34667 ft 530 kts 106°
2026-04-23 00:07 32.24890 -109.17494 34658 ft 530 kts 106°
2026-04-23 00:08 32.22965 -109.09097 34646 ft 529 kts 106°
2026-04-23 00:08 32.21034 -109.00728 34640 ft 528 kts 106°
2026-04-23 00:09 32.19113 -108.92369 34648 ft 527 kts 106°
2026-04-23 00:09 32.17200 -108.84038 34650 ft 527 kts 106°
2026-04-23 00:10 32.15268 -108.75695 34653 ft 527 kts 105°
2026-04-23 00:10 32.14293 -108.71516 34758 ft 528 kts 105°
2026-04-23 00:10 32.13320 -108.67337 34753 ft 528 kts 105°
2026-04-23 00:11 32.11372 -108.58981 34741 ft 528 kts 105°
2026-04-23 00:11 32.09414 -108.50628 34706 ft 528 kts 106°
2026-04-23 00:12 32.07458 -108.42286 34671 ft 528 kts 106°
2026-04-23 00:12 32.05502 -108.33990 34648 ft 529 kts 106°
2026-04-23 00:13 32.03524 -108.25637 34645 ft 529 kts 106°
2026-04-23 00:13 32.01543 -108.17299 34646 ft 529 kts 106°
2026-04-23 00:14 31.99554 -108.08967 34642 ft 528 kts 106°
2026-04-23 00:14 31.97572 -108.00631 34634 ft 528 kts 106°
2026-04-23 00:15 31.95904 -107.93645 34636 ft 528 kts 106°
2026-04-23 00:15 31.93907 -107.85324 34632 ft 528 kts 106°
2026-04-23 00:16 31.92094 -107.76947 34629 ft 528 kts 97°
2026-04-23 00:16 31.91475 -107.68407 34634 ft 526 kts 92°
2026-04-23 00:17 31.90946 -107.59813 34597 ft 527 kts 92°
2026-04-23 00:17 31.90376 -107.51174 34613 ft 526 kts 92°
2026-04-23 00:18 31.89797 -107.42646 34610 ft 526 kts 92°
2026-04-23 00:18 31.89218 -107.34068 34615 ft 525 kts 92°
2026-04-23 00:19 31.88635 -107.25511 34599 ft 525 kts 92°
2026-04-23 00:19 31.88045 -107.16950 34595 ft 525 kts 92°
2026-04-23 00:20 31.87451 -107.08384 34601 ft 525 kts 92°
2026-04-23 00:20 31.86850 -106.99832 34592 ft 523 kts 92°
2026-04-23 00:21 31.86245 -106.91306 34596 ft 523 kts 93°
2026-04-23 00:21 31.85936 -106.87043 34762 ft 523 kts 93°
2026-04-23 00:21 31.85622 -106.82772 34788 ft 523 kts 93°
2026-04-23 00:22 31.85000 -106.74245 34813 ft 523 kts 93°
2026-04-23 00:22 31.84374 -106.65714 34827 ft 521 kts 93°
2026-04-23 00:23 31.83747 -106.57303 34796 ft 520 kts 93°
2026-04-23 00:23 31.83128 -106.48816 34794 ft 520 kts 93°
2026-04-23 00:24 31.82508 -106.40365 34792 ft 519 kts 93°
2026-04-23 00:24 31.81862 -106.31894 34776 ft 519 kts 93°
2026-04-23 00:25 31.80483 -106.23578 34767 ft 520 kts 105°
2026-04-23 00:25 31.78444 -106.15418 34718 ft 520 kts 106°
2026-04-23 00:26 31.76403 -106.07254 34663 ft 520 kts 106°
2026-04-23 00:26 31.74383 -105.99103 34616 ft 520 kts 106°
2026-04-23 00:27 31.72364 -105.90988 34607 ft 516 kts 106°
2026-04-23 00:27 31.70339 -105.82896 34610 ft 516 kts 106°
2026-04-23 00:28 31.68319 -105.74829 34616 ft 516 kts 106°
2026-04-23 00:28 31.66301 -105.66800 34615 ft 516 kts 106°
2026-04-23 00:29 31.64268 -105.58740 34612 ft 514 kts 106°
2026-04-23 00:29 31.62239 -105.50719 34621 ft 513 kts 105°
2026-04-23 00:30 31.60208 -105.42682 34623 ft 513 kts 106°
2026-04-23 00:30 31.58166 -105.34660 34628 ft 513 kts 106°
2026-04-23 00:31 31.56120 -105.26647 34640 ft 512 kts 106°
2026-04-23 00:31 31.54089 -105.18692 34633 ft 508 kts 106°
2026-04-23 00:32 31.52052 -105.10760 34632 ft 508 kts 106°
2026-04-23 00:32 31.50016 -105.02839 34641 ft 507 kts 106°
2026-04-23 00:33 31.47976 -104.94924 34639 ft 508 kts 106°
2026-04-23 00:33 31.45931 -104.87022 34616 ft 507 kts 106°
2026-04-23 00:34 31.43879 -104.79112 34630 ft 507 kts 106°
2026-04-23 00:34 31.41843 -104.71278 34641 ft 507 kts 106°
2026-04-23 00:35 31.39782 -104.63386 34634 ft 507 kts 106°
2026-04-23 00:35 31.37720 -104.55501 34639 ft 507 kts 106°
2026-04-23 00:36 31.35651 -104.47616 34634 ft 507 kts 106°
2026-04-23 00:36 31.33574 -104.39725 34636 ft 507 kts 106°
2026-04-23 00:37 31.31497 -104.31847 34632 ft 507 kts 106°
2026-04-23 00:37 31.29416 -104.23972 34640 ft 507 kts 106°
2026-04-23 00:38 31.27328 -104.16100 34633 ft 506 kts 107°
2026-04-23 00:38 31.25237 -104.08239 34639 ft 507 kts 107°
2026-04-23 00:39 31.23139 -104.00375 34628 ft 507 kts 107°
2026-04-23 00:39 31.21036 -103.92510 34606 ft 507 kts 107°
2026-04-23 00:40 31.18929 -103.84645 34639 ft 507 kts 107°
2026-04-23 00:40 31.16826 -103.76837 34621 ft 503 kts 107°
2026-04-23 00:41 31.14725 -103.69040 34630 ft 503 kts 107°
2026-04-23 00:41 31.12623 -103.61255 34630 ft 503 kts 107°
2026-04-23 00:42 31.10518 -103.53488 34631 ft 503 kts 107°
2026-04-23 00:42 31.08405 -103.45714 34593 ft 500 kts 107°
2026-04-23 00:43 31.06308 -103.38038 34589 ft 500 kts 107°
2026-04-23 00:43 31.04202 -103.30315 34588 ft 500 kts 107°
2026-04-23 00:44 31.02078 -103.22549 34591 ft 500 kts 107°
2026-04-23 00:44 30.99972 -103.14888 34590 ft 500 kts 107°
2026-04-23 00:45 30.97860 -103.07220 34589 ft 493 kts 107°
2026-04-23 00:45 30.95743 -102.99644 34594 ft 491 kts 109°
2026-04-23 00:46 30.92668 -102.92549 34729 ft 491 kts 121°
2026-04-23 00:46 30.89115 -102.85745 34741 ft 491 kts 122°
2026-04-23 00:47 30.85572 -102.78939 34720 ft 492 kts 121°
2026-04-23 00:47 30.82053 -102.72132 34712 ft 488 kts 122°
2026-04-23 00:48 30.78556 -102.65371 34693 ft 487 kts 122°
2026-04-23 00:48 30.75062 -102.58628 34682 ft 487 kts 122°
2026-04-23 00:49 30.71581 -102.51932 34672 ft 487 kts 122°
2026-04-23 00:49 30.68076 -102.45209 34687 ft 487 kts 122°
2026-04-23 00:50 30.64560 -102.38477 34674 ft 487 kts 122°
2026-04-23 00:50 30.61055 -102.31763 34693 ft 486 kts 122°
2026-04-23 00:51 30.57547 -102.25060 34702 ft 486 kts 122°
2026-04-23 00:51 30.54038 -102.18363 34703 ft 486 kts 122°
2026-04-23 00:52 30.50537 -102.11673 34710 ft 486 kts 122°
2026-04-23 00:52 30.47018 -102.04979 34708 ft 486 kts 122°
2026-04-23 00:53 30.43491 -101.98299 34713 ft 485 kts 122°
2026-04-23 00:53 30.39975 -101.91628 34711 ft 485 kts 122°
2026-04-23 00:54 30.36452 -101.84958 34717 ft 486 kts 122°
2026-04-23 00:54 30.32920 -101.78289 34720 ft 486 kts 122°
2026-04-23 00:55 30.29387 -101.71627 34720 ft 486 kts 122°
2026-04-23 00:55 30.25850 -101.64974 34718 ft 486 kts 122°
2026-04-23 00:56 30.22305 -101.58310 34733 ft 487 kts 122°
2026-04-23 00:56 30.18747 -101.51640 34720 ft 487 kts 122°
2026-04-23 00:57 30.15197 -101.44987 34723 ft 487 kts 122°
2026-04-23 00:57 30.11640 -101.38336 34729 ft 487 kts 122°
2026-04-23 00:58 30.08077 -101.31688 34723 ft 487 kts 122°
2026-04-23 00:58 30.04532 -101.25081 34742 ft 488 kts 122°
2026-04-23 00:59 30.00955 -101.18431 34733 ft 488 kts 122°
2026-04-23 00:59 29.97372 -101.11771 34733 ft 488 kts 122°
2026-04-23 01:00 29.93784 -101.05119 34731 ft 489 kts 122°
2026-04-23 01:00 29.90190 -100.98466 34741 ft 488 kts 121°
2026-04-23 01:01 29.87189 -100.92917 34742 ft 487 kts 122°
2026-04-23 01:01 29.83623 -100.86336 34747 ft 487 kts 122°
2026-04-23 01:02 29.80036 -100.79729 34740 ft 487 kts 122°
2026-04-23 01:02 29.76444 -100.73124 34743 ft 487 kts 122°
2026-04-23 01:03 29.72848 -100.66517 34724 ft 487 kts 122°
2026-04-23 01:03 29.69254 -100.59925 34722 ft 487 kts 122°
2026-04-23 01:04 29.65643 -100.53317 34722 ft 488 kts 122°
2026-04-23 01:04 29.60220 -100.43409 34724 ft 489 kts 122°
2026-04-23 01:05 29.56595 -100.36808 34723 ft 488 kts 122°
2026-04-23 01:05 29.52970 -100.30210 34729 ft 488 kts 122°
2026-04-23 01:06 29.49344 -100.23615 34730 ft 488 kts 122°
2026-04-23 01:06 29.45707 -100.17016 34743 ft 490 kts 122°
2026-04-23 01:07 29.42066 -100.10422 34728 ft 489 kts 122°
2026-04-23 01:07 29.38427 -100.03844 34746 ft 488 kts 122°
2026-04-23 01:08 29.34786 -99.97270 34756 ft 488 kts 122°
2026-04-23 01:08 29.31137 -99.90702 34760 ft 488 kts 122°
2026-04-23 01:09 29.27481 -99.84138 34766 ft 488 kts 122°
2026-04-23 01:09 29.23826 -99.77576 34779 ft 489 kts 122°
2026-04-23 01:10 29.20162 -99.71012 34771 ft 489 kts 122°
2026-04-23 01:10 29.16501 -99.64441 34769 ft 489 kts 122°
2026-04-23 01:11 29.12840 -99.57879 34762 ft 489 kts 122°
2026-04-23 01:11 29.09170 -99.51334 34756 ft 489 kts 122°
2026-04-23 01:12 29.05503 -99.44794 34750 ft 488 kts 122°
2026-04-23 01:12 29.01847 -99.38275 34746 ft 486 kts 123°
2026-04-23 01:13 28.98194 -99.31773 34733 ft 486 kts 123°
2026-04-23 01:13 28.94530 -99.25285 34733 ft 486 kts 123°
2026-04-23 01:14 28.90866 -99.18798 34742 ft 486 kts 123°
2026-04-23 01:14 28.87203 -99.12324 34743 ft 485 kts 123°
2026-04-23 01:15 28.83566 -99.05895 34751 ft 484 kts 123°
2026-04-23 01:15 28.79915 -98.99452 34737 ft 483 kts 123°
2026-04-23 01:16 28.76262 -98.93014 34745 ft 483 kts 123°
2026-04-23 01:16 28.72611 -98.86592 34744 ft 483 kts 123°
2026-04-23 01:17 28.68953 -98.80164 34743 ft 483 kts 123°
2026-04-23 01:17 28.65294 -98.73750 34741 ft 483 kts 123°
2026-04-23 01:18 28.61630 -98.67347 34750 ft 482 kts 123°
2026-04-23 01:18 28.57965 -98.60958 34750 ft 482 kts 123°
2026-04-23 01:19 28.54305 -98.54568 34754 ft 482 kts 123°
2026-04-23 01:19 28.50635 -98.48168 34765 ft 482 kts 123°
2026-04-23 01:20 28.46969 -98.41784 34760 ft 482 kts 123°
2026-04-23 01:20 28.43297 -98.35396 34754 ft 482 kts 123°
2026-04-23 01:21 28.39608 -98.29004 34765 ft 484 kts 124°
2026-04-23 01:21 28.35942 -98.22664 34763 ft 484 kts 124°
2026-04-23 01:22 28.32243 -98.16288 34770 ft 484 kts 124°
2026-04-23 01:22 28.28546 -98.09904 34774 ft 484 kts 124°
2026-04-23 01:23 28.24852 -98.03522 34790 ft 484 kts 124°
2026-04-23 01:23 28.21151 -97.97153 34794 ft 484 kts 124°
2026-04-23 01:24 28.17443 -97.90764 34796 ft 485 kts 124°
2026-04-23 01:24 28.13723 -97.84397 34793 ft 485 kts 124°
2026-04-23 01:25 28.10006 -97.78021 34786 ft 484 kts 124°
2026-04-23 01:25 28.06292 -97.71668 34800 ft 484 kts 124°
2026-04-23 01:26 28.02579 -97.65322 34801 ft 484 kts 124°
2026-04-23 01:26 27.98860 -97.58977 34808 ft 484 kts 125°
2026-04-23 01:27 27.95148 -97.52659 34802 ft 485 kts 124°
2026-04-23 01:27 27.91464 -97.46256 34799 ft 486 kts 120°
2026-04-23 01:28 27.90041 -97.42789 34799 ft 487 kts 109°
2026-04-23 01:28 27.89118 -97.39118 34806 ft 486 kts 103°
2026-04-23 01:28 27.87562 -97.31666 34801 ft 486 kts 102°
2026-04-23 01:29 27.85977 -97.24258 34824 ft 485 kts 103°
2026-04-23 01:29 27.84362 -97.16851 34838 ft 485 kts 103°
2026-04-23 01:30 27.82746 -97.09440 34839 ft 485 kts 103°
2026-04-23 01:30 27.81118 -97.02042 34840 ft 485 kts 103°
2026-04-23 01:31 27.79496 -96.94647 34838 ft 485 kts 103°
2026-04-23 01:31 27.77863 -96.87252 34834 ft 485 kts 103°
2026-04-23 01:32 27.76230 -96.79854 34831 ft 485 kts 103°
2026-04-23 01:32 27.74592 -96.72465 34828 ft 485 kts 103°
2026-04-23 01:33 27.72958 -96.65116 34829 ft 485 kts 103°
2026-04-23 01:33 27.71318 -96.57739 34828 ft 485 kts 103°
2026-04-23 01:34 27.69661 -96.50353 34832 ft 485 kts 103°
2026-04-23 01:34 27.68001 -96.42987 34836 ft 484 kts 104°
2026-04-23 01:35 27.66334 -96.35628 34832 ft 484 kts 104°
2026-04-23 01:35 27.64672 -96.28272 34833 ft 484 kts 104°
2026-04-23 01:36 27.63022 -96.20911 34834 ft 484 kts 103°
2026-04-23 01:36 27.61388 -96.13607 34837 ft 484 kts 104°
2026-04-23 01:37 27.59720 -96.06215 34845 ft 484 kts 104°
2026-04-23 01:37 27.58057 -95.98905 34837 ft 484 kts 104°
2026-04-23 01:38 27.56367 -95.91509 34842 ft 484 kts 104°
2026-04-23 01:38 27.54705 -95.84211 34833 ft 484 kts 104°
2026-04-23 01:39 27.53014 -95.76866 34843 ft 484 kts 104°
2026-04-23 01:39 27.51319 -95.69520 34846 ft 484 kts 104°
2026-04-23 01:40 27.49635 -95.62203 34846 ft 483 kts 104°
2026-04-23 01:40 27.47952 -95.54878 34836 ft 483 kts 104°
2026-04-23 01:41 27.46255 -95.47568 34850 ft 482 kts 104°
2026-04-23 01:41 27.44557 -95.40251 34852 ft 482 kts 104°
2026-04-23 01:42 27.42853 -95.32950 34844 ft 482 kts 104°
2026-04-23 01:42 27.41145 -95.25650 34841 ft 482 kts 104°
2026-04-23 01:43 27.39445 -95.18360 34854 ft 482 kts 104°
2026-04-23 01:43 27.37741 -95.11106 34836 ft 482 kts 104°
2026-04-23 01:44 27.36018 -95.03753 34847 ft 483 kts 104°
2026-04-23 01:44 27.34302 -94.96491 34851 ft 483 kts 104°
2026-04-23 01:45 27.32575 -94.89207 34851 ft 482 kts 105°
2026-04-23 01:45 27.30838 -94.81922 34855 ft 482 kts 104°
2026-04-23 01:46 27.29393 -94.75829 34858 ft 482 kts 104°
2026-04-23 01:46 27.27673 -94.68556 34861 ft 482 kts 104°
2026-04-23 01:47 27.25951 -94.61329 34859 ft 482 kts 105°
2026-04-23 01:47 27.24189 -94.54070 34869 ft 480 kts 105°
2026-04-23 01:48 27.22449 -94.46834 34861 ft 479 kts 105°
2026-04-23 01:48 27.20712 -94.39608 34870 ft 479 kts 105°
2026-04-23 01:49 27.18970 -94.32369 34871 ft 479 kts 105°
2026-04-23 01:49 27.17229 -94.25150 34871 ft 479 kts 105°
2026-04-23 01:50 27.15471 -94.17924 34870 ft 479 kts 105°
2026-04-23 01:50 27.13722 -94.10725 34868 ft 478 kts 105°
2026-04-23 01:51 27.11964 -94.03534 34872 ft 478 kts 105°
2026-04-23 01:51 27.10214 -93.96332 34874 ft 478 kts 105°
2026-04-23 01:52 27.08481 -93.89135 34874 ft 478 kts 102°
2026-04-23 01:52 27.07208 -93.81810 34879 ft 478 kts 100°
2026-04-23 01:53 27.05976 -93.74483 34883 ft 479 kts 100°
2026-04-23 01:53 27.04716 -93.67139 34882 ft 479 kts 100°
2026-04-23 01:54 27.03451 -93.59799 34876 ft 479 kts 100°
2026-04-23 01:54 27.02188 -93.52458 34877 ft 479 kts 100°
2026-04-23 01:55 27.00915 -93.45118 34865 ft 479 kts 100°
2026-04-23 01:55 26.99646 -93.37831 34880 ft 479 kts 100°
2026-04-23 01:56 26.98375 -93.30493 34877 ft 479 kts 100°
2026-04-23 01:56 26.97096 -93.23167 34881 ft 479 kts 100°
2026-04-23 01:57 26.95810 -93.15838 34880 ft 479 kts 101°
2026-04-23 01:57 26.94518 -93.08516 34880 ft 479 kts 101°
2026-04-23 01:58 26.93224 -93.01184 34881 ft 479 kts 101°
2026-04-23 01:58 26.91934 -92.93867 34880 ft 479 kts 101°
2026-04-23 01:59 26.90626 -92.86546 34883 ft 479 kts 101°
2026-04-23 01:59 26.89300 -92.79229 34883 ft 479 kts 101°
2026-04-23 02:00 26.87991 -92.71912 34889 ft 479 kts 101°
2026-04-23 02:00 26.86687 -92.64595 34901 ft 477 kts 101°
2026-04-23 02:01 26.85393 -92.57333 34896 ft 475 kts 101°
2026-04-23 02:01 26.84086 -92.50075 34878 ft 478 kts 101°
2026-04-23 02:02 26.82754 -92.42770 34891 ft 479 kts 101°
2026-04-23 02:02 26.81420 -92.35456 34894 ft 479 kts 101°
2026-04-23 02:03 26.80082 -92.28145 34912 ft 480 kts 101°
2026-04-23 02:03 26.78760 -92.20862 34901 ft 480 kts 101°
2026-04-23 02:04 26.77425 -92.13542 34898 ft 481 kts 101°
2026-04-23 02:04 26.76082 -92.06213 34893 ft 480 kts 101°
2026-04-23 02:05 26.74728 -91.98883 34890 ft 480 kts 101°
2026-04-23 02:05 26.73377 -91.91561 34892 ft 481 kts 101°
2026-04-23 02:06 26.72027 -91.84247 34900 ft 480 kts 102°
2026-04-23 02:06 26.70668 -91.76935 34906 ft 480 kts 102°
2026-04-23 02:07 26.69304 -91.69624 34904 ft 480 kts 102°
2026-04-23 02:07 26.67938 -91.62317 34905 ft 480 kts 102°
2026-04-23 02:08 26.66569 -91.55011 34905 ft 480 kts 102°
2026-04-23 02:08 26.65187 -91.47696 34909 ft 481 kts 102°
2026-04-23 02:09 26.63805 -91.40381 34906 ft 481 kts 102°
2026-04-23 02:09 26.62426 -91.33117 34907 ft 481 kts 102°
2026-04-23 02:10 26.61034 -91.25808 34911 ft 481 kts 102°
2026-04-23 02:10 26.59647 -91.18506 34914 ft 481 kts 102°
2026-04-23 02:11 26.58245 -91.11192 34917 ft 481 kts 102°
2026-04-23 02:11 26.56844 -91.03880 34911 ft 482 kts 102°
2026-04-23 02:12 26.55466 -90.96560 34913 ft 482 kts 102°
2026-04-23 02:12 26.54068 -90.89244 34919 ft 482 kts 102°
2026-04-23 02:13 26.52658 -90.81925 34916 ft 482 kts 102°
2026-04-23 02:13 26.51237 -90.74610 34916 ft 482 kts 102°
2026-04-23 02:14 26.49818 -90.67294 34917 ft 482 kts 102°
2026-04-23 02:14 26.48400 -90.60034 34923 ft 482 kts 102°
2026-04-23 02:15 26.46263 -90.49064 34917 ft 482 kts 103°
2026-04-23 02:16 26.44807 -90.41764 34913 ft 482 kts 103°
2026-04-23 02:16 26.43368 -90.34452 34926 ft 483 kts 103°
2026-04-23 02:17 26.41915 -90.27117 34920 ft 484 kts 103°
2026-04-23 02:17 26.40461 -90.19791 34918 ft 484 kts 103°
2026-04-23 02:18 26.39004 -90.12461 34921 ft 484 kts 103°
2026-04-23 02:18 26.37545 -90.05134 34924 ft 484 kts 103°
2026-04-23 02:19 26.36090 -89.97800 34923 ft 485 kts 102°
2026-04-23 02:19 26.35152 -89.90355 34923 ft 486 kts 94°
2026-04-23 02:20 26.34685 -89.82834 34922 ft 486 kts 93°
2026-04-23 02:20 26.34204 -89.75349 34920 ft 486 kts 94°
2026-04-23 02:21 26.33708 -89.67787 34917 ft 486 kts 93°
2026-04-23 02:21 26.33219 -89.60313 34918 ft 486 kts 94°
2026-04-23 02:22 26.32711 -89.52746 34922 ft 486 kts 94°
2026-04-23 02:22 26.32211 -89.45281 34921 ft 486 kts 94°
2026-04-23 02:23 26.31701 -89.37757 34924 ft 486 kts 94°
2026-04-23 02:23 26.31193 -89.30243 34923 ft 486 kts 94°
2026-04-23 02:24 26.30686 -89.22721 34926 ft 486 kts 93°
2026-04-23 02:24 26.30165 -89.15209 34922 ft 486 kts 94°
2026-04-23 02:25 26.29638 -89.07700 34930 ft 486 kts 93°
2026-04-23 02:25 26.29115 -89.00189 34928 ft 486 kts 93°
2026-04-23 02:26 26.28585 -88.92684 34932 ft 486 kts 94°
2026-04-23 02:26 26.28047 -88.85181 34935 ft 486 kts 93°
2026-04-23 02:27 26.27490 -88.77662 34933 ft 487 kts 94°
2026-04-23 02:27 26.26951 -88.70139 34935 ft 487 kts 93°
2026-04-23 02:28 26.26410 -88.62614 34930 ft 487 kts 94°
2026-04-23 02:28 26.25862 -88.55092 34931 ft 487 kts 93°
2026-04-23 02:29 26.25309 -88.47557 34931 ft 487 kts 94°
2026-04-23 02:29 26.24734 -88.40008 34926 ft 490 kts 94°
2026-04-23 02:30 26.24130 -88.32429 34934 ft 491 kts 94°
2026-04-23 02:30 26.23557 -88.24837 34928 ft 492 kts 94°
2026-04-23 02:31 26.23016 -88.17296 34940 ft 491 kts 94°
2026-04-23 02:31 26.22452 -88.09707 34930 ft 491 kts 94°
2026-04-23 02:32 26.21859 -88.02107 34936 ft 494 kts 95°
2026-04-23 02:32 26.21345 -87.95772 34941 ft 494 kts 95°
2026-04-23 02:33 26.20741 -87.88148 34947 ft 494 kts 94°
2026-04-23 02:33 26.20145 -87.80524 34938 ft 494 kts 94°
2026-04-23 02:34 26.19547 -87.72910 34940 ft 494 kts 94°
2026-04-23 02:34 26.18939 -87.65269 34944 ft 496 kts 95°
2026-04-23 02:35 26.18324 -87.57616 34947 ft 497 kts 95°
2026-04-23 02:35 26.17703 -87.49945 34947 ft 497 kts 95°
2026-04-23 02:36 26.17079 -87.42294 34943 ft 497 kts 95°
2026-04-23 02:36 26.16462 -87.34634 34949 ft 497 kts 95°
2026-04-23 02:37 26.15823 -87.26961 34947 ft 499 kts 96°
2026-04-23 02:37 26.15183 -87.19267 34954 ft 499 kts 96°
2026-04-23 02:38 26.14526 -87.11585 34955 ft 499 kts 96°
2026-04-23 02:38 26.13887 -87.03903 34950 ft 499 kts 96°
2026-04-23 02:39 26.13232 -86.96217 34948 ft 499 kts 96°
2026-04-23 02:39 26.12579 -86.88533 34957 ft 499 kts 96°
2026-04-23 02:40 26.11930 -86.80840 34954 ft 499 kts 96°
2026-04-23 02:40 26.11267 -86.73142 34953 ft 499 kts 96°
2026-04-23 02:41 26.10612 -86.65504 34953 ft 499 kts 96°
2026-04-23 02:41 26.09947 -86.57811 34957 ft 499 kts 96°
2026-04-23 02:42 26.09280 -86.50122 35015 ft 500 kts 97°
2026-04-23 02:42 26.08944 -86.46266 35137 ft 501 kts 97°
2026-04-23 02:42 26.08606 -86.42410 35157 ft 500 kts 97°
2026-04-23 02:43 26.07930 -86.34718 35136 ft 500 kts 97°
2026-04-23 02:43 26.07241 -86.27015 35136 ft 500 kts 97°
2026-04-23 02:44 26.06548 -86.19320 35140 ft 500 kts 97°
2026-04-23 02:44 26.05844 -86.11621 35136 ft 500 kts 97°
2026-04-23 02:45 26.05142 -86.03922 35137 ft 501 kts 97°
2026-04-23 02:45 26.04587 -85.96196 35140 ft 501 kts 92°
2026-04-23 02:46 26.04403 -85.88455 35138 ft 501 kts 92°
2026-04-23 02:46 26.04235 -85.80709 35142 ft 501 kts 92°
2026-04-23 02:47 26.04066 -85.72960 35143 ft 501 kts 92°
2026-04-23 02:47 26.03897 -85.65210 35143 ft 501 kts 92°
2026-04-23 02:48 26.03721 -85.57473 35137 ft 501 kts 92°
2026-04-23 02:48 26.03537 -85.49720 35138 ft 501 kts 92°
2026-04-23 02:49 26.03356 -85.41980 35144 ft 501 kts 92°
2026-04-23 02:49 26.03155 -85.34225 35146 ft 502 kts 92°
2026-04-23 02:50 26.02969 -85.26476 35146 ft 502 kts 92°
2026-04-23 02:50 26.02779 -85.18714 35146 ft 501 kts 92°
2026-04-23 02:51 26.02568 -85.11015 35144 ft 501 kts 92°
2026-04-23 02:51 26.02357 -85.03269 35139 ft 502 kts 92°
2026-04-23 02:52 26.02161 -84.95447 35147 ft 503 kts 93°
2026-04-23 02:52 26.01937 -84.87728 35148 ft 503 kts 93°
2026-04-23 02:53 26.01665 -84.79959 35149 ft 503 kts 94°
2026-04-23 02:53 26.01362 -84.72187 35148 ft 503 kts 94°
2026-04-23 02:54 26.01062 -84.64426 35150 ft 504 kts 94°
2026-04-23 02:54 26.00755 -84.56624 35152 ft 506 kts 94°
2026-04-23 02:55 26.00448 -84.48809 35155 ft 506 kts 94°
2026-04-23 02:55 26.00134 -84.40999 35154 ft 506 kts 94°
2026-04-23 02:56 25.99820 -84.33183 35152 ft 506 kts 94°
2026-04-23 02:56 25.99497 -84.25373 35150 ft 506 kts 94°
2026-04-23 02:57 25.99171 -84.17567 35153 ft 506 kts 94°
2026-04-23 02:57 25.98842 -84.09710 35139 ft 512 kts 94°
2026-04-23 02:58 25.98502 -84.01790 35152 ft 513 kts 94°
2026-04-23 02:58 25.98166 -83.93869 35154 ft 513 kts 94°
2026-04-23 02:59 25.97824 -83.85941 35153 ft 513 kts 94°
2026-04-23 02:59 25.97458 -83.78015 35157 ft 513 kts 94°
2026-04-23 03:00 25.97102 -83.70101 35160 ft 513 kts 94°
2026-04-23 03:00 25.96744 -83.62167 35164 ft 514 kts 94°
2026-04-23 03:01 25.96389 -83.54244 35166 ft 513 kts 94°
2026-04-23 03:01 25.96049 -83.46331 35162 ft 512 kts 93°
2026-04-23 03:02 25.95781 -83.38478 35166 ft 512 kts 93°
2026-04-23 03:02 25.95491 -83.30574 35168 ft 512 kts 94°
2026-04-23 03:03 25.95199 -83.22632 35169 ft 512 kts 94°
2026-04-23 03:03 25.94892 -83.14770 35169 ft 512 kts 94°
2026-04-23 03:04 25.94590 -83.06879 35170 ft 511 kts 94°
2026-04-23 03:04 25.94290 -82.99000 35171 ft 511 kts 94°
2026-04-23 03:05 25.93973 -82.91116 35172 ft 511 kts 94°
2026-04-23 03:05 25.93648 -82.83224 35172 ft 511 kts 94°
2026-04-23 03:06 25.93340 -82.75348 35162 ft 511 kts 94°
2026-04-23 03:06 25.93015 -82.67441 35173 ft 512 kts 94°
2026-04-23 03:07 25.92679 -82.59532 35172 ft 512 kts 94°
2026-04-23 03:07 25.92354 -82.51629 35172 ft 512 kts 94°
2026-04-23 03:08 25.92011 -82.43734 35174 ft 512 kts 94°
2026-04-23 03:08 25.91671 -82.35838 35177 ft 512 kts 94°
2026-04-23 03:09 25.91327 -82.27951 35178 ft 511 kts 94°
2026-04-23 03:09 25.90974 -82.20001 35185 ft 519 kts 94°
2026-04-23 03:09 25.90791 -82.16018 34828 ft 515 kts 94°
2026-04-23 03:10 25.90611 -82.12034 34003 ft 517 kts 94°
2026-04-23 03:10 25.90426 -82.08047 33075 ft 518 kts 94°
2026-04-23 03:10 25.90238 -82.04023 32094 ft 521 kts 94°
2026-04-23 03:10 25.90060 -82.00230 31330 ft 521 kts 94°
2026-04-23 03:11 25.89887 -81.96234 30692 ft 517 kts 93°
2026-04-23 03:11 25.89716 -81.92257 30058 ft 513 kts 93°
2026-04-23 03:11 25.89531 -81.88317 29389 ft 507 kts 93°
2026-04-23 03:11 25.89346 -81.84432 28758 ft 501 kts 92°
2026-04-23 03:12 25.89453 -81.80593 28119 ft 494 kts 79°
2026-04-23 03:12 25.90347 -81.76959 27552 ft 482 kts 63°
2026-04-23 03:12 25.91982 -81.73765 27319 ft 471 kts 50°
2026-04-23 03:12 25.93914 -81.70840 27229 ft 467 kts 48°
2026-04-23 03:13 25.95828 -81.67950 26675 ft 463 kts 49°
2026-04-23 03:13 25.97702 -81.65055 26044 ft 460 kts 49°
2026-04-23 03:13 25.99564 -81.62175 25417 ft 457 kts 49°
2026-04-23 03:13 26.01389 -81.59358 24871 ft 453 kts 50°
2026-04-23 03:14 26.03208 -81.56524 24318 ft 448 kts 50°
2026-04-23 03:14 26.05001 -81.53729 23789 ft 443 kts 50°
2026-04-23 03:14 26.06791 -81.50953 23174 ft 438 kts 50°
2026-04-23 03:14 26.08558 -81.48219 22603 ft 432 kts 50°
2026-04-23 03:15 26.10317 -81.45533 22036 ft 427 kts 50°
2026-04-23 03:15 26.12053 -81.42881 21472 ft 421 kts 50°
2026-04-23 03:15 26.13760 -81.40247 20933 ft 416 kts 50°
2026-04-23 03:15 26.15432 -81.37642 20407 ft 412 kts 51°
2026-04-23 03:16 26.17088 -81.35066 19896 ft 407 kts 51°
2026-04-23 03:16 26.18185 -81.33348 19555 ft 403 kts 51°
2026-04-23 03:16 26.21418 -81.28317 18568 ft 394 kts 51°
2026-04-23 03:17 26.23003 -81.25850 18019 ft 390 kts 52°
2026-04-23 03:17 26.24568 -81.23404 17459 ft 386 kts 52°
2026-04-23 03:17 26.26063 -81.20930 16905 ft 383 kts 59°
2026-04-23 03:17 26.26962 -81.18151 16350 ft 384 kts 78°
2026-04-23 03:18 26.27017 -81.15191 15804 ft 382 kts 98°
2026-04-23 03:18 26.26224 -81.12396 15265 ft 378 kts 118°
2026-04-23 03:18 26.24694 -81.10057 14739 ft 373 kts 135°
2026-04-23 03:18 26.22851 -81.08044 14234 ft 369 kts 137°
2026-04-23 03:19 26.21073 -81.06046 13707 ft 367 kts 135°
2026-04-23 03:19 26.19351 -81.03968 13167 ft 364 kts 133°
2026-04-23 03:19 26.17698 -81.01872 12817 ft 355 kts 131°
2026-04-23 03:19 26.16118 -80.99822 12570 ft 342 kts 131°
2026-04-23 03:20 26.14754 -80.97722 12365 ft 330 kts 115°
2026-04-23 03:20 26.14114 -80.95318 12119 ft 319 kts 99°
2026-04-23 03:20 26.13753 -80.92901 11748 ft 314 kts 98°
2026-04-23 03:20 26.13404 -80.90511 11329 ft 312 kts 99°
2026-04-23 03:21 26.13042 -80.88151 10964 ft 307 kts 99°
2026-04-23 03:21 26.12667 -80.85829 10595 ft 303 kts 100°
2026-04-23 03:21 26.12293 -80.83537 10211 ft 300 kts 100°
2026-04-23 03:21 26.11918 -80.81271 9791 ft 297 kts 100°
2026-04-23 03:22 26.11539 -80.79025 9363 ft 294 kts 100°
2026-04-23 03:22 26.11167 -80.76797 8926 ft 292 kts 100°
2026-04-23 03:22 26.10800 -80.74584 8498 ft 290 kts 99°
2026-04-23 03:22 26.10433 -80.72397 8098 ft 287 kts 99°
2026-04-23 03:23 26.10064 -80.70223 7696 ft 284 kts 99°
2026-04-23 03:23 26.09703 -80.68071 7313 ft 282 kts 99°
2026-04-23 03:23 26.09345 -80.65938 6919 ft 279 kts 99°
2026-04-23 03:23 26.08987 -80.63824 6530 ft 277 kts 99°
2026-04-23 03:24 26.08635 -80.61727 6134 ft 274 kts 99°
2026-04-23 03:24 26.08288 -80.59651 5767 ft 271 kts 99°
2026-04-23 03:24 26.07946 -80.57607 5410 ft 267 kts 100°
2026-04-23 03:24 26.07610 -80.55605 5079 ft 263 kts 100°
2026-04-23 03:25 26.07288 -80.53636 4970 ft 249 kts 99°
2026-04-23 03:25 26.06994 -80.51806 4961 ft 232 kts 100°
2026-04-23 03:25 26.06769 -80.50058 4885 ft 226 kts 93°
2026-04-23 03:25 26.06736 -80.48392 4831 ft 209 kts 90°
2026-04-23 03:26 26.06733 -80.46802 4852 ft 206 kts 90°
2026-04-23 03:26 26.06738 -80.45229 4879 ft 194 kts 90°
2026-04-23 03:26 26.06736 -80.43827 4910 ft 170 kts 90°
2026-04-23 03:26 26.06735 -80.42625 4909 ft 143 kts 90°
2026-04-23 03:27 26.06736 -80.41531 4891 ft 140 kts 89°
2026-04-23 03:27 26.06744 -80.40449 4656 ft 137 kts 90°
2026-04-23 03:27 26.06741 -80.39406 4404 ft 137 kts 90°
2026-04-23 03:27 26.06738 -80.38698 4237 ft 136 kts 91°
2026-04-23 03:28 26.06732 -80.37656 3964 ft 134 kts 91°
2026-04-23 03:28 26.06725 -80.36623 3643 ft 133 kts 91°
2026-04-23 03:28 26.06719 -80.35604 3307 ft 131 kts 91°
2026-04-23 03:28 26.06712 -80.34586 2991 ft 132 kts 91°
2026-04-23 03:29 26.06706 -80.33566 2705 ft 130 kts 91°
2026-04-23 03:29 26.06699 -80.32554 2462 ft 129 kts 91°
2026-04-23 03:29 26.06693 -80.31549 2290 ft 131 kts 91°
2026-04-23 03:29 26.06686 -80.30534 2287 ft 132 kts 91°
2026-04-23 03:30 26.06680 -80.29516 2280 ft 132 kts 91°
2026-04-23 03:30 26.06673 -80.28493 2207 ft 132 kts 91°
2026-04-23 03:30 26.06667 -80.27480 2055 ft 130 kts 91°
2026-04-23 03:30 26.06661 -80.26472 1886 ft 130 kts 91°
2026-04-23 03:31 26.06655 -80.25473 1714 ft 131 kts 91°
2026-04-23 03:31 26.06648 -80.24458 1538 ft 131 kts 90°
2026-04-23 03:31 26.06642 -80.23447 1357 ft 131 kts 91°
2026-04-23 03:31 26.06636 -80.22441 1188 ft 130 kts 90°
2026-04-23 03:32 26.06642 -80.21434 1031 ft 131 kts 86°
2026-04-23 03:32 26.06656 -80.20421 879 ft 131 kts 86°
2026-04-23 03:32 26.06651 -80.19407 753 ft 131 kts 86°
2026-04-23 03:32 26.06648 -80.18390 584 ft 131 kts 86°
2026-04-23 03:33 26.06629 -80.17374 412 ft 131 kts 88°
2026-04-23 03:33 26.06606 -80.16374 191 ft 125 kts 88°
2026-04-23 03:33 26.06588 -80.15419 58 ft 120 kts 87°
2026-04-23 03:33 26.06595 -80.14577 44 ft 91 kts 95°
2026-04-23 03:34 26.06582 -80.14199 66 ft 25 kts 90°
2026-04-23 03:34 26.06581 -80.14009 80 ft 23 kts 89°
2026-04-23 03:34 26.06597 -80.13838 80 ft 22 kts 72°
2026-04-23 03:34 26.06672 -80.13735 80 ft 7 kts 43°
2026-04-23 03:35 26.06710 -80.13718 84 ft 5 kts 348°
2026-04-23 03:35 26.06732 -80.13738 82 ft 3 kts 304°
2026-04-23 03:35 26.06739 -80.13758 84 ft 4 kts 284°
2026-04-23 03:35 26.06742 -80.13794 80 ft 6 kts 272°
2026-04-23 03:36 26.06742 -80.13846 80 ft 8 kts 266°
2026-04-23 03:36 26.06740 -80.13914 80 ft 10 kts 265°
2026-04-23 03:36 26.06729 -80.13996 80 ft 12 kts 257°
2026-04-23 03:36 26.06702 -80.14085 75 ft 12 kts 246°
2026-04-23 03:37 26.06692 -80.14108 67 ft 0 kts 244°
2026-04-23 03:38 26.06694 -80.14104 69 ft 1 kts 244°
2026-04-23 03:39 26.06677 -80.14177 60 ft 10 kts 266°
2026-04-23 03:39 26.06676 -80.14240 55 ft 8 kts 270°
2026-04-23 03:39 26.06675 -80.14312 55 ft 10 kts 266°
2026-04-23 03:39 26.06674 -80.14399 53 ft 12 kts 270°
2026-04-23 03:40 26.06674 -80.14496 49 ft 13 kts 270°
2026-04-23 03:40 26.06669 -80.14600 44 ft 13 kts 266°
2026-04-23 03:40 26.06670 -80.14693 36 ft 11 kts 272°
2026-04-23 03:40 26.06673 -80.14777 30 ft 10 kts 274°
2026-04-23 03:41 26.06683 -80.14856 26 ft 11 kts 283°
2026-04-23 03:41 26.06733 -80.14918 22 ft 12 kts 355°
2026-04-23 03:41 26.06770 -80.14843 21 ft 13 kts 91°
2026-04-23 03:41 26.06771 -80.14733 21 ft 15 kts 83°
2026-04-23 03:42 26.06773 -80.14612 21 ft 10 kts 83°
2026-04-23 03:42 26.06809 -80.14554 23 ft 10 kts 44°
2026-04-23 03:42 26.06836 -80.14490 21 ft 5 kts 52°
2026-04-23 03:42 26.06875 -80.14475 21 ft 5 kts
2026-04-23 03:43 26.06877 -80.14475 21 ft 0 kts
2026-04-23 03:43 26.06879 -80.14475 21 ft 1 kts
2026-04-23 03:43 26.06884 -80.14475 21 ft 0 kts